Home   Weather   39°59'N, 82°50'W   Past weeks
Flag for USA

Past Weather in 39°59'N, 82°50'W, USA — Yesterday and Last 2 Weeks

Now
63 °F

Sunny.


Feels Like: 63 °F
Forecast: 72 / 38 °F
Wind: 8 mph from South

Location: John Glenn Columbus International Airport

Current Time: Oct 15, 2019 at 1:15:28 pm

Latest Report: Oct 15, 2019 at 11:51 am


Visibility: 10 mi

Pressure: 30.06 "Hg

Humidity: 40%

Dew Point: 38 °F

Location of 39°59'N, 82°50'WLocation

Past Weather in 39°59'N, 82°50'W — Graph

°F

39°59'N, 82°50'W Temperature Yesterday

Maximum temperature yesterday: 64 °F (at 3:51 pm)
Minimum temperature yesterday: 42 °F (at 3:51 am)
Average temperature yesterday: 53 °F

High & Low Weather Summary for the Past Weeks

 TemperatureHumidityPressure
High93 °F (Oct 1, 1:51 pm)97% (Oct 8, 12:51 am)30.30 "Hg (Oct 8, 12:51 am)
Low38 °F (Oct 13, 5:51 am)20% (Oct 13, 4:51 pm)29.85 "Hg (Oct 2, 4:51 pm)
Average63 °F65%30.08 "Hg
* Reported Sep 30 11:51 am — Oct 15 11:51 am, 39°59'N, 82°50'W. Weather by CustomWeather, © 2019

Note: Actual official high and low records may vary slightly from our data, if they occured in-between our weather recording intervals... More about our weather records

Advertising

39°59'N, 82°50'W Weather History for the Previous 24 Hours

Scroll right to see more
 ConditionsComfort  
Time TempWeatherWind HumidityBarometerVisibility
11:51 am
Tue, Oct 15
63 °FSunny.8 mph40%30.06 "Hg10 mi
10:51 am59 °FPassing clouds.7 mph46%30.08 "Hg10 mi
9:51 am54 °FPassing clouds.6 mph57%30.10 "Hg10 mi
8:51 am47 °FPassing clouds.3 mph71%30.12 "Hg10 mi
7:51 am43 °FPassing clouds.No wind76%30.12 "Hg10 mi
6:51 am42 °FPassing clouds.No wind79%30.12 "Hg10 mi
5:51 am40 °FPassing clouds.No wind83%30.12 "Hg10 mi
4:51 am40 °FPassing clouds.No wind83%30.11 "Hg10 mi
3:51 am42 °FPassing clouds.No wind79%30.12 "Hg10 mi
2:51 am41 °FPassing clouds.No wind82%30.13 "Hg10 mi
1:51 am43 °FPassing clouds.No wind79%30.12 "Hg10 mi
12:51 am44 °FPassing clouds.3 mph76%30.12 "Hg10 mi
11:51 pm
Mon, Oct 14
47 °FClear.No wind66%30.11 "Hg10 mi
10:51 pm48 °FClear.No wind66%30.11 "Hg10 mi
9:51 pm50 °FClear.No wind59%30.10 "Hg10 mi
8:51 pm53 °FClear.No wind51%30.09 "Hg10 mi
7:51 pm55 °FClear.7 mph44%30.07 "Hg10 mi
6:51 pm58 °FSunny.9 mph39%30.07 "Hg10 mi
5:51 pm63 °FSunny.10 mph33%30.05 "Hg10 mi
4:51 pm64 °FSunny.6 mph32%30.05 "Hg10 mi
3:51 pm64 °FSunny.13 mph32%30.05 "Hg10 mi
2:51 pm63 °FSunny.13 mph31%30.04 "Hg10 mi
1:51 pm63 °FSunny.15 mph31%30.06 "Hg10 mi
Weather by CustomWeather, © 2019

See weather overview